SCP
-0 -0 -0 0 0 0 0 0 0 0 0 0 0 0 0 0 0 0 0 0 0 0 0 0 0 0 0 0 0 0 0 0 0 0 0 0 0 0 -0 -0 -0 -0 -0
-0 -0 0 0 0 0 0 0 0 0 0 0 0 0 0 0 0 0 0 0 0 0 0 0 0 0 0 0 0 0 0 0 0 0 0 0 0 0 0 -0 -0 -0 -0
-0 0 0 0 0 0 0 0 0 0 0 0 0 0 0 0 0 0 0 0 0 0 0 0 0 0 0 0 0 0 0 0 0 0 0 0 0 0 0 0 -0 -0 -0
0 0 0 0 0 0 0 0 0 0 0 0 0 0 0 0 0 0 0 0 0 0 0 0 0 0 0 0 0 0 0 0 0 0 0 0 0 0 0 0 0 -0 -0
0 0 0 0 0 0 0 0 0 0 0 0 0 0 0 0 0 0 0 0 0 0 0 0 0 0 0 0 0 0 0 0 0 0 0 0 0 0 0 0 0 -0 -0
0 0 0 0 0 0 0 0 0 0 0 0 0 0 0 0 0 0 0 0 0 0 0 0 0 0 0 0 0 0 0 0 0 0 0 0 0 0 0 0 0 0 0
0 0 0 0 0 0 0 0 0 0 0 0 0 0 0 0 0 0 0 0 0 0 0 0 0 0 0 0 0 0 0 0 0 0 0 0 0 0 0 0 0 0 0
0 0 0 0 0 0 0 0 0 0 0 0 0 0 0 0 0 0 0 0 0 0 0 0 0 0 0 0 0 0 0 0 0 0 0 0 0 0 0 0 0 0 0
0 0 0 0 0 0 0 0 0 0 0 0 0 0 0 0 0 0 0 0 0 0 0 0 0 0 0 0 0 0 0 0 0 0 0 0 0 0 0 0 0 0 0
0 0 0 0 0 0 0 0 0 0 0 0 0 0 0 0 0 0 0 0 0 0 0 0 0 0 0 0 0 0 0 0 0 0 0 0 0 0 0 0 0 0 0
0 0 0 0 0 0 0 0 0 0 0 0 0 0 0 0 0 0 0 0 0 0 0 0 0 0 0 0 0 0 0 0 0 0 0 0 0 0 0 0 0 0 0
0 0 0 0 0 0 0 0 0 0 0 0 0 0 0 0 0 0 0 0 0 0 0 0 0 0 0 0 0 0 0 0 0 0 0 0 0 0 0 0 0 0 0
0 0 0 0 0 0 0 0 0 0 0 0 0 0 0 0 0 0 0 0 0 0 0 0 0 0 0 0 0 0 0 0 0 0 0 0 0 0 0 0 0 0 0
0 0 0 0 0 0 0 0 0 0 0 0 0 0 0 0 0 0 0 0 0 0 0 0 0 0 0 0 0 0 0 0 0 0 0 0 0 0 0 0 0 0 0
0 0 0 0 0 0 0 0 0 0 0 0 0 0 0 0 0 0 0 0 0 0 0 0 0 0 0 0 0 0 0 0 -0 -0 -0 -0 -0 0 0 0 0 0 0
0 0 0 0 0 0 0 0 0 0 0 0 0 0 0 0 0 0 0 0 0 0 0 0 0 0 0 0 0 0 0 -0 -0 -0 -0 -0 -0 -0 -0 0 0 0 0
0 0 0 0 0 0 0 0 0 0 0 0 0 0 0 0 0 0 0 0 0 0 0 0 0 0 0 0 0 0 0 -0 -0 -0 -0 -0 -0 -0 -0 -0 -0 -0 -0
0 0 0 0 0 0 0 0 0 0 0 0 0 0 0 0 0 0 0 0 0 0 0 0 0 0 0 0 0 0 0 0 0 -0 -0 -0 -0 -0 -0 -0 -0 -0 -0
0 0 0 0 0 0 0 0 0 0 0 0 0 0 0 0 0 0 0 0 0 0 0 0 0 0 0 0 0 0 0 0 0 0 0 0 0 0 0 0 -0 -0 -0
0 0 0 0 0 0 0 0 0 0 0 0 0 0 0 0 0 0 0 0 0 0 0 0 0 0 0 0 0 0 0 0 0 0 0 0 0 0 0 0 0 -0 -0
0 0 0 0 0 0 0 0 0 0 0 0 0 0 0 0 0 0 0 0 0 0 0 0 0 0 0 0 0 0 0 0 0 0 0 0 0 0 0 0 0 0 0
0 0 0 0 0 0 0 0 0 0 0 0 0 0 0 0 0 0 0 0 0 0 0 0 0 0 0 0 0 0 0 0 0 0 0 0 0 0 0 0 0 0 0
0 0 0 0 0 0 0 0 0 0 0 0 0 0 0 0 0 0 0 0 0 0 0 0 0 0 0 0 0 0 0 0 0 0 0 0 0 0 0 0 0 0 0
0 0 0 0 0 0 0 0 0 0 0 0 0 0 0 0 0 0 0 0 0 -0 -0 0 0 0 0 0 0 0 0 0 0 0 0 0 0 0 0 0 0 0 0
0 0 0 0 0 0 0 0 0 0 0 0 0 0 0 0 -0 -0 0 0 -0 -0 -0 0 0 0 0 -0 -0 0 0 0 0 0 0 0 0 0 0 0 0 0 0
0 0 0 0 0 0 0 0 0 0 0 0 0 0 0 -0 -0 -0 -0 -0 -0 -0 0 0 -0 -0 -0 -0 -0 0 0 0 0 0 0 0 0 0 0 0 0 0 0
Wind_Speed
5 4 3 2 2 3 3 2 2 4 3 4 3 3 3 3 1 1 5 11 12 12 12 12 13 13 13 13 12 12 12 12 13 14 14 14 14 14 14 14 14 14 14
5 5 4 4 4 3 3 3 4 3 3 2 3 3 3 2 0 2 4 7 12 12 13 13 13 13 13 13 13 13 13 14 14 15 15 15 15 15 16 16 16 16 16
7 6 5 5 4 4 4 3 4 3 3 2 2 3 2 2 1 3 4 3 6 10 12 13 13 13 13 14 14 14 14 15 15 16 16 17 17 17 17 17 18 18 18
9 7 6 5 5 4 4 3 2 2 3 3 3 3 2 1 3 3 4 3 3 3 6 10 12 13 13 13 14 15 15 16 16 17 17 18 18 18 18 18 19 19 20
9 8 6 6 6 5 4 4 3 3 4 4 4 3 2 1 3 4 4 3 3 3 3 5 8 10 12 13 14 15 16 17 17 18 18 19 19 19 19 20 20 21 21
10 9 7 8 7 5 4 4 5 4 4 4 4 3 1 0 3 3 2 2 1 2 4 6 7 8 11 13 14 15 16 17 18 19 19 20 21 21 21 21 22 23 23
10 9 8 8 6 5 5 5 4 5 5 5 4 2 1 2 3 3 2 3 2 3 5 7 8 8 7 12 12 14 16 18 19 20 20 21 22 22 23 23 24 25 25
10 8 9 8 7 6 7 6 4 3 3 4 4 4 3 2 3 3 3 3 4 4 6 9 10 10 9 7 9 14 16 18 20 21 22 23 23 24 25 26 27 27 27
9 9 9 8 8 6 6 6 5 3 3 3 4 4 3 3 5 4 4 4 5 6 8 9 10 11 10 8 8 11 16 19 21 22 24 25 26 27 27 28 29 29 29
9 9 9 9 8 7 7 6 5 3 2 2 1 2 3 4 5 5 4 5 6 8 9 8 10 11 10 8 10 15 17 19 22 25 26 27 28 29 29 30 30 31 31
9 9 9 9 8 7 7 6 5 3 2 1 1 2 2 3 5 5 8 7 7 7 7 9 10 9 9 9 10 12 17 21 25 27 27 28 28 29 30 31 31 32 32
8 9 9 8 8 7 6 5 4 3 1 0 1 2 3 4 4 5 8 10 10 9 10 9 8 8 8 10 12 16 20 24 27 27 28 29 29 30 31 32 32 32 32
8 10 8 8 7 7 6 5 3 2 1 2 3 3 4 5 5 6 9 10 12 11 9 6 7 8 9 10 11 19 22 26 27 28 30 31 31 31 31 32 32 32 33
9 10 9 8 8 7 5 4 2 2 1 3 4 5 4 5 5 6 8 10 12 10 9 12 10 8 8 10 14 22 18 25 27 29 31 32 33 32 32 32 32 33 33
10 11 10 9 7 6 4 3 1 1 2 3 4 5 5 5 5 6 7 8 10 13 14 12 8 8 10 12 16 16 18 23 28 30 31 32 32 32 33 33 33 33 33
11 11 9 8 7 5 4 2 1 1 3 4 4 6 6 5 6 7 7 8 9 13 15 10 12 13 14 13 18 18 18 25 27 28 29 30 31 32 33 33 33 33 33
11 10 9 7 6 4 3 2 2 2 4 5 5 6 7 8 7 7 8 9 10 11 16 15 13 14 18 18 16 16 16 17 16 25 28 30 32 32 33 33 33 33 33
10 9 8 6 5 3 2 2 3 4 5 6 6 7 8 7 9 9 8 10 10 12 15 19 15 15 18 18 18 18 16 14 16 23 28 30 31 32 32 33 33 33 33
10 8 7 5 4 2 2 3 4 5 6 7 7 8 9 9 11 10 11 11 11 11 13 16 17 15 14 14 17 17 18 15 16 18 24 26 28 31 32 32 33 33 33
9 7 6 4 3 1 2 4 5 7 7 8 8 8 9 10 11 12 11 13 13 14 14 15 15 15 15 16 16 15 15 14 14 15 19 21 24 28 30 31 32 32 32
8 6 5 3 1 1 2 5 7 8 8 9 9 9 10 12 15 14 12 13 14 13 13 14 15 15 15 15 15 14 15 16 16 14 16 15 15 16 18 23 26 28 30
7 5 3 2 1 2 4 8 9 9 9 9 10 10 11 12 14 18 20 20 20 17 16 15 15 16 19 18 16 15 16 17 17 13 15 17 15 16 15 15 23 30 31
5 4 2 1 3 3 6 9 10 10 10 9 10 11 10 10 15 13 17 20 20 22 22 18 18 18 19 18 18 19 18 18 18 16 16 19 16 17 15 16 28 31 32
4 2 1 2 4 4 7 10 12 11 9 10 11 12 12 13 13 16 17 17 16 16 17 15 15 17 17 18 18 18 19 19 18 14 15 18 17 17 16 16 25 29 28
2 1 1 3 5 5 6 10 12 10 9 11 11 12 13 14 17 21 18 17 17 15 16 19 22 23 26 26 21 13 14 14 16 15 13 12 13 16 16 16 16 22 25
1 1 2 4 5 6 7 11 13 8 9 10 10 11 14 15 19 22 17 16 17 16 15 16 17 17 17 17 19 13 11 12 14 12 8 9 12 12 12 10 11 14 16
Wind_Direction
174 161 155 133 107 100 108 91 79 67 51 39 30 8 360 354 8 82 87 60 59 60 55 45 35 25 14 5 358 354 350 345 341 337 333 329 326 324 321 317 314 311 307
167 155 141 124 111 100 90 91 78 67 50 30 20 8 352 344 64 134 112 88 66 60 55 43 31 19 7 356 347 342 338 334 329 326 322 319 316 314 313 310 308 304 301
159 144 132 124 115 112 110 97 82 58 42 16 359 355 341 321 202 147 127 106 91 69 55 40 26 13 1 349 340 334 329 325 322 319 315 312 309 307 306 304 303 300 297
149 138 130 122 122 116 108 94 77 59 32 357 341 344 319 270 202 152 138 115 83 67 61 36 16 5 354 343 334 328 324 320 317 314 311 308 304 301 300 299 298 297 295
142 133 125 124 125 116 107 96 68 36 21 359 338 335 331 253 173 170 149 120 87 40 9 14 354 349 344 336 329 324 321 317 313 310 307 304 301 297 296 295 294 293 291
133 125 120 125 125 121 115 107 89 58 25 349 327 333 3 85 187 175 176 175 164 335 337 343 336 336 332 328 325 322 320 317 313 309 306 304 300 297 295 293 292 290 287
129 124 124 126 125 117 114 106 92 64 34 355 328 322 191 184 207 193 241 264 258 288 308 333 335 331 322 322 319 320 320 317 313 309 307 304 299 296 294 291 290 288 286
126 125 129 127 123 117 107 93 81 74 51 16 349 325 312 206 176 211 266 267 283 293 316 329 327 321 316 312 312 313 315 314 312 309 305 302 299 297 294 292 289 287 285
119 122 127 124 122 116 104 92 82 72 69 52 15 347 324 318 315 273 275 289 296 308 317 318 314 314 309 302 307 311 313 312 309 307 305 304 301 297 293 290 288 286 284
120 124 125 121 117 112 109 100 88 82 57 49 56 2 327 320 296 300 272 267 287 299 300 303 308 305 299 302 303 304 307 308 308 307 305 301 298 295 293 290 289 287 285
121 126 124 120 115 110 108 108 105 94 68 27 348 318 288 271 268 282 294 302 298 292 296 298 296 292 296 301 302 303 309 309 307 304 301 299 297 296 294 292 291 289 288
128 128 125 120 118 115 116 117 117 117 111 104 293 292 297 293 294 286 290 300 302 303 301 292 286 290 298 303 301 308 309 307 304 302 300 299 297 296 296 295 294 292 290
141 138 133 127 121 120 123 129 133 141 175 248 274 284 281 279 288 284 286 295 297 299 292 282 276 287 296 299 301 309 306 303 302 301 299 299 299 298 297 296 294 292 290
138 137 132 127 125 129 134 141 150 173 229 260 272 281 282 279 280 281 288 298 299 293 289 294 302 298 297 296 296 301 296 296 297 297 298 298 298 298 296 294 292 290 289
134 135 132 130 131 134 140 158 180 204 252 271 281 280 281 284 282 282 282 284 291 298 300 302 298 302 300 297 296 293 293 293 295 294 294 294 295 294 294 293 291 289 287
134 135 135 135 137 140 150 174 208 243 272 282 289 289 291 289 289 285 282 282 280 286 289 295 300 301 303 296 293 293 292 293 291 291 292 293 293 293 293 291 290 288 286
135 136 137 139 141 146 160 198 243 265 281 288 287 290 293 297 294 292 289 285 283 284 288 294 298 302 301 299 298 296 294 293 292 293 294 294 293 293 292 291 289 288 286
132 133 136 137 137 147 184 242 268 277 286 291 294 293 295 299 295 293 290 288 287 287 289 296 299 300 300 300 299 299 298 295 294 295 295 294 294 293 291 290 289 287 285
129 132 135 136 139 157 225 268 282 286 287 289 292 294 297 299 297 296 296 292 290 289 288 291 296 299 299 301 303 300 300 298 298 296 296 294 293 292 291 290 289 288 286
130 132 131 130 140 188 253 277 286 288 288 288 288 289 292 294 297 299 296 294 294 295 294 293 294 299 301 304 304 305 304 303 300 299 294 293 292 293 291 290 288 286 285
125 128 131 138 168 252 285 301 295 291 291 292 290 288 288 292 294 295 295 297 300 297 295 294 296 300 302 307 306 308 305 304 299 299 298 297 298 293 291 288 287 284 283
127 132 138 157 241 288 313 302 305 300 294 292 295 296 296 293 294 298 299 299 296 293 294 295 297 298 300 303 307 305 303 303 303 306 302 299 297 292 291 289 288 289 288
133 143 153 240 287 311 308 308 309 301 296 296 298 298 299 298 303 301 300 297 294 291 290 293 293 294 299 303 303 302 301 300 298 301 300 295 297 294 293 291 293 291 290
139 153 201 292 299 308 312 312 311 300 295 294 296 299 300 303 304 306 303 300 297 296 294 293 291 292 293 295 296 298 298 296 292 290 292 293 297 297 299 296 293 290 288
143 178 280 294 299 306 316 313 315 308 298 299 300 299 300 299 303 307 305 303 302 300 299 297 293 290 291 294 296 295 295 295 296 299 298 289 296 304 298 290 289 292 294
143 280 287 293 299 306 314 312 318 306 304 304 302 300 299 302 307 309 309 307 305 308 308 303 298 296 295 294 294 289 290 291 296 298 295 299 301 310 304 290 296 300 299